Content
SEND FEEDBACK

Daily
Averages
Monthly
Summary
United States of America

RAPID CITY, SOUTH DAKOTA


Home > North America > United States > South Dakota
Elevation: 963 meters     Latitude: 44 03N     Longitude: 103 04W

WEATHER
 
SELECT A DAY
Number of Records: 200,263;   Date Range: 1/1/95 - 7/23/14
 
SHARE

PRINT THIS DATA

[ ← Previous Day ]
WEATHER ALMANAC - 10 FEBRUARY, 2013
[ Next Day → ]
[ °F ]   °C
Weather ElementAverageHighLow
Temperature-2.8 °C-1.1 °C (2:52 am)-7.2 °C (9:52 pm)
Dewpoint-6.4 °C-3 °C (8:15 am)-12.8 °C (11:52 pm)
Humidity76.9 %93 % (8:15 am)64 % (2:52 am)
Barometer1009.1 hPa1020 hPa (11:52 pm)1003.4 hPa (2:26 am)
Wind Speed47.5 km/h62.9 km/h (10:42 am)
Wind Gust79.7 km/h (11:06 am)
Weather ElementAverage
Visibility9 km
Wind DirectionNNW (336.2 °)

Weather ElementTotal
Precipitation3.3 mm
Heating Degree Days22.5 (Base 18.3)
Averaged from 47 records on 10 February, 2013
WEATHER CONDITIONS BREAKOUT
WIND DIRECTION BREAKOUT
WEATHER BY HOUR - 10 FEBRUARY, 2013
[ °F ]   °C
Local TimeTemperatureDewpointHumidityBarometerVisibilityWind DirectionWind SpeedGust SpeedPrecipitationEventsConditions
1:52 AM-2.2 °C-6.1 °C75 %1006.4 hPa16.1 kmNNW (340°)48.1 km/h61.2 km/hOvercast
2:26 AM-2 °C-6 °C74 %1003.4 hPa2.9 kmNNW (340°)50.1 km/h62.9 km/h0 mmSnowLight Snow
2:32 AM-2 °C-7 °C69 %1003.4 hPa4.8 kmNNW (340°)44.4 km/h62.9 km/h0 mmSnowLight Snow
2:52 AM-1.1 °C-7.2 °C64 %1005.4 hPa16.1 kmNNW (340°)33.3 km/h48.1 km/h0 mmOvercast
3:52 AM-1.1 °C-6.1 °C69 %1005.4 hPa16.1 kmNNW (340°)46.3 km/h61.2 km/hOvercast
4:52 AM-1.1 °C-6.1 °C69 %1005.8 hPa16.1 kmNNW (340°)40.7 km/h51.8 km/hOvercast
5:52 AM-1.7 °C-5 °C78 %1006.1 hPa16.1 kmNNW (340°)42.6 km/h59.2 km/hOvercast
6:38 AM-2 °C-4 °C86 %1003.7 hPa4.8 kmNNW (340°)46.3 km/h59.2 km/h0 mmSnowLight Snow
6:46 AM-2 °C-4 °C86 %1003.7 hPa4.8 kmNNW (340°)42.6 km/h57.5 km/h0 mmSnowLight Snow
6:47 AM-2.2 °C-4.4 °C85 %1007.1 hPa4.8 kmNNW (340°)42.6 km/h57.5 km/h0 mmSnowLight Snow
6:54 AM-2 °C-4 °C86 %1003.7 hPa3.2 kmNNW (340°)46.3 km/h61.2 km/h0 mmSnowLight Snow
7:05 AM-2 °C-4 °C86 %1004.1 hPa2.9 kmNNW (340°)46.3 km/h62.9 km/h0 mmSnowLight Snow
7:27 AM-2 °C-4 °C86 %1004.1 hPa0.8 kmNNW (340°)46.3 km/h62.9 km/h0 mmFog-SnowSnow
7:52 AM-1.7 °C-3.9 °C85 %1007.5 hPa1.3 kmNNW (340°)50.1 km/h68.6 km/h0 mmSnowLight Snow
8:04 AM-2 °C-4 °C86 %1004.4 hPa1.3 kmNNW (340°)50.1 km/h64.9 km/h0 mmSnowLight Snow
8:15 AM-2 °C-3 °C93 %1004.7 hPa1.3 kmNNW (340°)46.3 km/h66.6 km/h0.51 mmSnowLight Snow
8:52 AM-2.2 °C-3.9 °C88 %1008.5 hPa0.8 kmNNW (340°)53.8 km/h64.9 km/h0.76 mmFog-SnowSnow
9:18 AM-2 °C-4 °C86 %1005.4 hPa0.8 kmNNW (340°)53.8 km/h68.6 km/h0.25 mmFog-SnowSnow
9:30 AM-2 °C-4 °C86 %1005.8 hPa0.8 kmNNW (340°)57.5 km/h68.6 km/h0.25 mmFog-SnowLight Snow
9:32 AM-2 °C-4 °C86 %1005.8 hPa0.8 kmNNW (340°)57.5 km/h68.6 km/h0.25 mmFog-SnowLight Snow
9:52 AM-1.7 °C-5 °C78 %1009.1 hPa1.9 kmNNW (340°)55.5 km/h68.6 km/h0.25 mmSnowLight Snow
10:42 AM-2 °C-4 °C86 %1006.8 hPa4.8 kmNNW (340°)62.9 km/h74 km/h0.51 mmSnowLight Snow
10:52 AM-1.7 °C-4.4 °C82 %1009.8 hPa14.5 kmNNW (340°)53.8 km/h76 km/h0.51 mmSnowLight Snow
11:06 AM-2 °C-6 °C74 %1006.8 hPa11.3 kmNNW (330°)61.2 km/h79.7 km/h0 mmSnowLight Snow
11:44 AM-2 °C-7 °C69 %1007.1 hPa14.5 kmNNW (340°)53.8 km/h72.3 km/h0 mmSnowLight Snow
11:52 AM-2.2 °C-7.2 °C69 %1010.5 hPa9.7 kmNNW (340°)53.8 km/h76 km/h0 mmSnowLight Snow
12:52 PM-1.7 °C-6.7 °C69 %1010.5 hPa14.5 kmNNW (330°)48.1 km/h72.3 km/h0 mmSnowLight Snow
1:52 PM-1.7 °C-6.7 °C69 %1010.5 hPa16.1 kmNNW (340°)44.4 km/h74 km/h0 mmOvercast
2:32 PM-2 °C-5 °C80 %1008.1 hPa2.9 kmNNW (330°)50.1 km/h64.9 km/h0 mmSnowLight Snow
2:52 PM-2.2 °C-5.6 °C78 %1011.9 hPa2.4 kmNNW (330°)53.8 km/h74 km/h0 mmSnowLight Snow
2:59 PM-3 °C-5 °C86 %1009.1 hPa0.3 kmNNW (330°)55.5 km/h74 km/h0 mmFog-SnowHeavy Snow
3:03 PM-3 °C-6 °C80 %1008.8 hPa0.8 kmNNW (330°)48.1 km/h72.3 km/h0 mmSnowSnow
3:08 PM-2 °C-6 °C74 %1008.8 hPa3.2 kmNNW (330°)42.6 km/h64.9 km/h0 mmSnowLight Snow
3:11 PM-2 °C-6 °C74 %1009.1 hPa11.3 kmNNW (340°)46.3 km/h64.9 km/h0 mmOvercast
3:18 PM-2 °C-6 °C74 %1009.1 hPa4 kmNNW (330°)53.8 km/h66.6 km/h0 mmSnowLight Snow
3:29 PM-2 °C-6 °C74 %1009.1 hPa14.5 kmNNW (330°)46.3 km/h62.9 km/h0 mmOvercast
3:52 PM-1.7 °C-7.2 °C67 %1012.9 hPa16.1 kmNNW (330°)53.8 km/h68.6 km/h0 mmOvercast
4:52 PM-3.3 °C-7.2 °C75 %1014.6 hPa16.1 kmNNW (330°)57.5 km/h74 km/h0 mmOvercast
5:52 PM-3.9 °C-8.9 °C69 %1015.6 hPa16.1 kmNNW (330°)53.8 km/h72.3 km/hOvercast
6:52 PM-5 °C-9.4 °C72 %1016.3 hPa16.1 kmNNW (330°)51.8 km/h64.9 km/hClear
7:52 PM-5.6 °C-10 °C72 %1016.9 hPa16.1 kmNNW (340°)48.1 km/h64.9 km/hClear
8:52 PM-6.7 °C-11.1 °C71 %1019 hPa16.1 kmNNW (340°)40.7 km/h55.5 km/hMostly Cloudy
9:52 PM-7.2 °C-11.1 °C74 %1019.3 hPa16.1 kmNNW (340°)27.8 km/hPartly Cloudy
10:06 PM-7 °C-11 °C74 %1015.2 hPa16.1 kmNNW (330°)27.8 km/hMostly Cloudy
10:14 PM-7 °C-12 °C68 %1015.2 hPa16.1 kmNNW (330°)25.9 km/hScattered Clouds
10:52 PM-6.7 °C-11.7 °C68 %1019.3 hPa16.1 kmNW (320°)37 km/h46.3 km/hClear
11:52 PM-7.2 °C-12.8 °C65 %1020 hPa16.1 kmNNW (330°)31.5 km/hClear
Hourly data recorded from KRAP, located 0 kilometers away from Rapid City, South Dakota







STORIES FROM OUR PARTNERS